Weather History for Columbus, OH

Change the Weather History Date:

Wednesday, August 28, 2013

  Actual Average Record
Temperature  
Mean Temperature 82 °F 73 °F  
Max Temperature 90 °F 83 °F 97 °F (1948)
Min Temperature 73 °F 63 °F 44 °F (1887)
Degree Days  
Heating Degree Days 0 0  
Month to date heating degree days 4 0  
Since 1 June heating degree days 10 19  
Since 1 July heating degree days 4 0  
Cooling Degree Days 17 8  
Month to date cooling degree days 240 258  
Year to date cooling degree days 959 866  
Since 1 June cooling degree days 798 784  
Growing Degree Days 32 (Base 50)    
Moisture  
Dew Point 72 °F    
Average Humidity 72    
Maximum Humidity 87    
Minimum Humidity 56    
Precipitation  
Precipitation 0.07 in 0.11 in 2.44 in (2009)
Month to date precipitation 2.05 2.99  
Year to date precipitation 25.85 27.36  
Snow  
Snow 0.00 in 0.00 in 0.00 in ()
Month to date snowfall 0.0 0.0  
Since 1 June snowfall 0.0 0.0  
Since 1 July snowfall 0.0 0.0  
Snow Depth 0.00 in    
Sea Level Pressure  
Sea Level Pressure 29.89 in    
Wind  
Wind Speed 9 mph (WNW)    
Max Wind Speed 23 mph    
Max Gust Speed 28 mph    
Visibility 9 miles    
Events Rain    
T = Trace of Precipitation, MM = Missing Value Source: NWS Daily Summary

Daily Weather History Graph

Daily Weather History Graph

Search for Another Location

Airport:

Trip Planner

Search our weather history database for the weather conditions in past years. The results will help you decide how hot, cold, wet, or windy it might be!

Date:

Astronomy

Aug. 28, 2013 Rise Set
Actual Time 6:55 AM EDT 8:08 PM EDT
Civil Twilight 6:27 AM EDT 8:36 PM EDT
Nautical Twilight 5:54 AM EDT 9:10 PM EDT
Astronomical Twilight 5:19 AM EDT 9:45 PM EDT
Moon 12:02 AM EDT (8/28) 2:45 PM EDT (8/28)
Length of Visible Light 14h 09m
Length of Day
13h 13m
Waning Gibbous, 47% of the Moon is Illuminated
Aug 28
Waning Gibbous
Sep 5
New
Sep 12
First Quarter
Sep 19
Full
Sep 26
Last Quarter

Hourly Weather History & Observations

Time (EDT) Temp. Heat Index Dew Point Humidity Pressure Visibility Wind Dir Wind Speed Gust Speed Precip Events Conditions
12:51 AM 82.0 °F 86.7 °F 72.0 °F 71% 29.92 in 9.0 mi SW 8.1 mph - N/A   Overcast
1:51 AM 81.0 °F 84.9 °F 71.1 °F 72% 29.91 in 10.0 mi SW 6.9 mph - N/A   Overcast
2:51 AM 80.1 °F 83.6 °F 71.1 °F 74% 29.91 in 10.0 mi West 13.8 mph - N/A   Overcast
3:51 AM 80.1 °F 83.6 °F 71.1 °F 74% 29.91 in 10.0 mi West 10.4 mph - N/A   Overcast
4:51 AM 78.1 °F - 72.0 °F 81% 29.88 in 10.0 mi SW 6.9 mph - 0.00 in Rain Light Rain
5:51 AM 78.1 °F - 72.0 °F 81% 29.87 in 10.0 mi WSW 9.2 mph - 0.00 in Rain Light Rain
6:51 AM 77.0 °F - 71.1 °F 82% 29.81 in 10.0 mi SW 9.2 mph 21.9 mph 0.00 in   Mostly Cloudy
7:51 AM 78.1 °F - 71.1 °F 79% 29.88 in 8.0 mi SE 4.6 mph - N/A   Mostly Cloudy
8:51 AM 78.1 °F - 72.0 °F 81% 29.88 in 7.0 mi SE 4.6 mph - N/A   Mostly Cloudy
9:51 AM 84.0 °F 87.8 °F 69.1 °F 61% 29.88 in 10.0 mi West 10.4 mph - N/A   Scattered Clouds
10:51 AM 82.9 °F 86.5 °F 69.1 °F 63% 29.88 in 10.0 mi WNW 10.4 mph - N/A   Overcast
11:51 AM 84.9 °F 89.4 °F 70.0 °F 61% 29.88 in 10.0 mi West 9.2 mph - N/A   Mostly Cloudy
12:51 PM 84.9 °F 89.4 °F 70.0 °F 61% 29.87 in 10.0 mi West 5.8 mph - N/A   Overcast
1:51 PM 90.0 °F 96.4 °F 71.1 °F 54% 29.86 in 10.0 mi West 11.5 mph - N/A   Mostly Cloudy
2:51 PM 87.1 °F 92.8 °F 71.1 °F 59% 29.86 in 10.0 mi WNW 13.8 mph - N/A   Overcast
3:51 PM 86.0 °F 92.2 °F 72.0 °F 63% 29.86 in 10.0 mi NW 11.5 mph - N/A   Overcast
4:41 PM 82.4 °F 88.2 °F 73.4 °F 74% 29.89 in 2.0 mi NNW 23.0 mph 27.6 mph 0.00 in Rain Rain
4:45 PM 80.6 °F 86.2 °F 75.2 °F 84% 29.89 in 5.0 mi NW 12.7 mph 27.6 mph 0.07 in Rain Light Rain
4:51 PM 81.0 °F 87.3 °F 75.9 °F 85% 29.86 in 5.0 mi NNW 9.2 mph - 0.07 in Rain Light Rain
5:51 PM 86.0 °F 95.1 °F 75.0 °F 70% 29.86 in 8.0 mi NW 9.2 mph - 0.00 in   Scattered Clouds
6:51 PM 84.9 °F 92.1 °F 73.9 °F 69% 29.86 in 9.0 mi North 10.4 mph - N/A   Scattered Clouds
7:51 PM 81.0 °F 85.8 °F 73.0 °F 77% 29.88 in 5.0 mi North 9.2 mph - N/A   Haze
8:51 PM 79.0 °F - 71.1 °F 77% 29.91 in 9.0 mi North 9.2 mph - N/A   Partly Cloudy
9:51 PM 77.0 °F - 71.1 °F 82% 29.93 in 10.0 mi North 6.9 mph - N/A   Clear
10:51 PM 75.9 °F - 71.1 °F 85% 29.95 in 10.0 mi North 6.9 mph - N/A   Clear
11:51 PM 73.9 °F - 70.0 °F 87% 29.96 in 10.0 mi NNW 6.9 mph - N/A   Clear